Location: Unspecified
(48.8656°N, 0.0000°E)
Time: 02:59:09
(UTC+00:00)

Transit 2A Rocket - Pass Details

Date: 23 June 2019
Orbit: 593 x 910 km, 66.7° (Epoch: 12 October)

Event Time Altitude Azimuth Distance (km) Brightness Sun altitude
Rises 09:45:40 0° 201° (SSW) 3,525 8.5 53.0°
Reaches altitude 10° 09:48:13 10° 198° (SSW) 2,588 8.0 53.4°
Maximum altitude 09:54:10 61° 120° (ESE) 1,013 8.5 54.2°
Drops below altitude 10° 09:59:57 10° 41° (NE) 2,511 7.8 55.0°
Sets 10:02:23 0° 38° (NE) 3,413 8.4 55.3°
